Weather History for Scappoose, OR

Change the Weather History Date:

Saturday, September 14, 2013

  Actual Average Record
Temperature  
Mean Temperature 71 °F -  
Max Temperature 80 °F - 89 °F (2000)
Min Temperature 62 °F - 44 °F (2003)
Degree Days  
Heating Degree Days 0    
Month to date heating degree days 0  
Since 1 July heating degree days 24  
Cooling Degree Days 6    
Month to date cooling degree days 72  
Year to date cooling degree days 396  
Growing Degree Days 21 (Base 50)    
Moisture  
Dew Point 60 °F    
Average Humidity 73    
Maximum Humidity 90    
Minimum Humidity 56    
Precipitation  
Precipitation 0.00 in - 0.31 in (2006)
Month to date precipitation 1.96  
Year to date precipitation 16.50  
Sea Level Pressure  
Sea Level Pressure 29.79 in    
Wind  
Wind Speed 4 mph (NNW)    
Max Wind Speed 12 mph    
Max Gust Speed 15 mph    
Visibility 10 miles    
Events      
T = Trace of Precipitation, MM = Missing Value Source: NWS Daily Summary

Daily Weather History Graph

Daily Weather History Graph

Search for Another Location

Airport:

Trip Planner

Search our weather history database for the weather conditions in past years. The results will help you decide how hot, cold, wet, or windy it might be!

Date:

Astronomy

Sep. 14, 2013 Rise Set
Actual Time 6:48 AM PDT 7:23 PM PDT
Civil Twilight 6:18 AM PDT 7:53 PM PDT
Nautical Twilight 5:43 AM PDT 8:29 PM PDT
Astronomical Twilight 5:06 AM PDT 9:05 PM PDT
Moon 4:21 PM PDT (9/14) 1:13 AM PDT (9/14)
Length of Visible Light 13h 34m
Length of Day
12h 34m
Waxing Gibbous, 73% of the Moon is Illuminated
Sep 14
Waxing Gibbous
Sep 19
Full
Sep 26
Last Quarter
Oct 4
New
Oct 11
First Quarter

Hourly Weather History & Observations

Time (PDT) Temp. Dew Point Humidity Pressure Visibility Wind Dir Wind Speed Gust Speed Precip Events Conditions
12:53 AM 64.0 °F 59.0 °F 84% 29.86 in 10.0 mi NNW 4.6 mph - N/A   Overcast
1:53 AM 63.0 °F 57.9 °F 84% 29.85 in 10.0 mi NNW 8.1 mph - N/A   Overcast
2:53 AM 63.0 °F 57.9 °F 84% 29.85 in 10.0 mi North 8.1 mph - N/A   Overcast
3:53 AM 63.0 °F 57.9 °F 84% 29.85 in 10.0 mi NNW 5.8 mph - N/A   Overcast
4:53 AM 63.0 °F 57.0 °F 81% 29.84 in 10.0 mi NW 6.9 mph - N/A   Overcast
5:53 AM 63.0 °F 57.9 °F 84% 29.84 in 10.0 mi NW 3.5 mph - N/A   Overcast
6:53 AM 63.0 °F 57.9 °F 84% 29.84 in 10.0 mi NW 5.8 mph - N/A   Overcast
7:53 AM 63.0 °F 57.9 °F 84% 29.85 in 10.0 mi Calm Calm - N/A   Overcast
8:53 AM 64.0 °F 57.9 °F 80% 29.84 in 10.0 mi NNW 3.5 mph - N/A   Overcast
9:53 AM 64.9 °F 57.9 °F 78% 29.84 in 10.0 mi North 4.6 mph - N/A   Overcast
10:53 AM 66.0 °F 59.0 °F 78% 29.83 in 10.0 mi Calm Calm - N/A   Overcast
11:28 AM 66.2 °F 59.0 °F 78% 29.82 in 10.0 mi Calm Calm - N/A   Overcast
11:53 AM 68.0 °F 59.0 °F 73% 29.82 in 10.0 mi NNE 4.6 mph - N/A   Overcast
12:53 PM 70.0 °F 59.0 °F 68% 29.79 in 10.0 mi Calm Calm - N/A   Mostly Cloudy
1:33 PM 73.4 °F 60.8 °F 65% 29.78 in 10.0 mi Variable 4.6 mph - N/A   Scattered Clouds
1:53 PM 75.0 °F 61.0 °F 62% 29.77 in 10.0 mi NNE 5.8 mph - N/A   Clear
2:53 PM 77.0 °F 61.0 °F 58% 29.75 in 10.0 mi Variable 4.6 mph - N/A   Clear
3:53 PM 79.0 °F 63.0 °F 58% 29.72 in 10.0 mi North 4.6 mph - N/A   Clear
4:53 PM 79.0 °F 62.1 °F 56% 29.70 in 10.0 mi NNE 5.8 mph - N/A   Clear
5:53 PM 78.1 °F 62.1 °F 58% 29.70 in 10.0 mi NNE 9.2 mph - N/A   Clear
6:53 PM 75.0 °F 62.1 °F 64% 29.70 in 10.0 mi NNW 5.8 mph - N/A   Clear
7:53 PM 70.0 °F 61.0 °F 73% 29.70 in 10.0 mi Calm Calm - N/A   Clear
8:53 PM 69.1 °F 62.1 °F 78% 29.72 in 10.0 mi North 6.9 mph - N/A   Clear
9:53 PM 64.9 °F 61.0 °F 87% 29.72 in 10.0 mi Calm Calm - N/A   Clear
10:53 PM 64.0 °F 60.1 °F 87% 29.72 in 10.0 mi NNW 3.5 mph - N/A   Clear
11:53 PM 63.0 °F 59.0 °F 87% 29.72 in 10.0 mi Calm Calm - N/A   Clear